,,,PA_Meas_PMT16A,,PR_Meas_QMR101_102,,RH_Meas_QMH101,,SR_Meas_QMS101,,TA_Meas_QMH101,,GenWind,,GenWind,
date,time,status,PA,status,PR,status,RH,status,SR,status,TA,status,DirAvg,status,SpdAvg,
2012-04-12, 00:00:04,VALID,1000.55,VALID,0,VALID,95.0803,VALID,0,VALID,23.0964,VALID,46,VALID,0.817187,
2012-04-12, 00:01:04,VALID,1000.58,VALID,0,VALID,95.0727,VALID,0,VALID,23.0946,VALID,46,VALID,0.777734,
2012-04-12, 00:02:04,VALID,1000.58,VALID,0,VALID,95.0574,VALID,0,VALID,23.1159,VALID,46,VALID,0.864453,
2012-04-12, 00:03:04,VALID,1000.52,VALID,0,VALID,95.0345,VALID,0,VALID,23.1354,VALID,46,VALID,0.664844,
2012-04-12, 00:04:04,VALID,1000.52,VALID,0,VALID,95.0269,VALID,0,VALID,23.1141,VALID,46,VALID,0.653516,
2012-04-12, 00:05:05,VALID,1000.51,VALID,0,VALID,94.9964,VALID,0,VALID,23.1354,VALID,46,VALID,0.683203,
2012-04-12, 00:06:05,VALID,1000.49,VALID,0,VALID,94.9964,VALID,0,VALID,23.1354,VALID,46,VALID,0.796875,
2012-04-12, 00:07:05,VALID,1000.46,VALID,0,VALID,95.0117,VALID,0,VALID,23.1141,VALID,46,VALID,0.838672,
2012-04-12, 00:08:05,VALID,1000.44,VALID,0,VALID,95.004,VALID,0,VALID,23.1141,VALID,46,VALID,0.906641,
2012-04-12, 00:09:05,VALID,1000.45,VALID,0,VALID,95.004,VALID,0,VALID,23.1141,VALID,46,VALID,0.901953,
2012-04-12, 00:10:05,VALID,1000.44,VALID,0,VALID,95.004,VALID,0,VALID,23.1159,VALID,46,VALID,0.85,
2012-04-12, 00:11:05,VALID,1000.44,VALID,0,VALID,95.0193,VALID,0,VALID,23.0946,VALID,46,VALID,0.841016,
2012-04-12, 00:12:05,VALID,1000.48,VALID,0,VALID,95.0727,VALID,0,VALID,23.1159,VALID,46,VALID,0.86875,
2012-04-12, 00:13:05,VALID,1000.5,VALID,0,VALID,95.0803,VALID,0,VALID,23.0964,VALID,46,VALID,0.880859,
2012-04-12, 00:14:05,VALID,1000.48,VALID,0,VALID,95.0803,VALID,0,VALID,23.1159,VALID,46,VALID,0.889844,
2012-04-12, 00:15:05,VALID,1000.5,VALID,0,VALID,95.0956,VALID,0,VALID,23.0751,VALID,46,VALID,0.966406,
2012-04-12, 00:16:05,VALID,1000.5,VALID,0,VALID,95.0651,VALID,0,VALID,23.0964,VALID,46,VALID,0.861328,
2012-04-12, 00:17:05,VALID,1000.48,VALID,0,VALID,95.088,VALID,0,VALID,23.0964,VALID,46,VALID,0.771094,
2012-04-12, 00:18:05,VALID,1000.5,VALID,0,VALID,95.1032,VALID,0,VALID,23.0964,VALID,62,VALID,0.758984,
2012-04-12, 00:19:05,VALID,1000.48,VALID,0,VALID,95.0803,VALID,0,VALID,23.0964,VALID,62,VALID,0.730078,
2012-04-12, 00:20:05,VALID,1000.47,VALID,0,VALID,95.088,VALID,0,VALID,23.0964,VALID,62,VALID,0.451562,
2012-04-12, 00:21:05,VALID,1000.46,VALID,0,VALID,95.1261,VALID,0,VALID,23.0769,VALID,62,VALID,0.555859,
2012-04-12, 00:22:05,VALID,1000.46,VALID,0,VALID,95.1185,VALID,0,VALID,23.0556,VALID,111,VALID,0.9375,
2012-04-12, 00:23:05,VALID,1000.45,VALID,0,VALID,95.1032,VALID,0,VALID,23.0361,VALID,111,VALID,0.803516,
2012-04-12, 00:24:05,VALID,1000.43,VALID,0,VALID,95.1643,VALID,0,VALID,23.0573,VALID,111,VALID,0.531641,
2012-04-12, 00:25:05,VALID,1000.41,VALID,0,VALID,95.1261,VALID,0,VALID,23.0361,VALID,111,VALID,0.448828,
2012-04-12, 00:26:05,VALID,1000.44,VALID,0,VALID,95.1719,VALID,0,VALID,23.0361,VALID,111,VALID,0.700391,
2012-04-12, 00:27:05,VALID,1000.45,VALID,0,VALID,95.1566,VALID,0,VALID,23.0573,VALID,142,VALID,1.08789,
2012-04-12, 00:28:05,VALID,1000.45,VALID,0,VALID,95.1795,VALID,0,VALID,23.0361,VALID,147,VALID,0.701172,
2012-04-12, 00:29:05,VALID,1000.42,VALID,0,VALID,95.1795,VALID,0,VALID,23.0556,VALID,140,VALID,0.686719,
2012-04-12, 00:30:05,VALID,1000.4,VALID,0,VALID,95.2024,VALID,0,VALID,23.0556,VALID,140,VALID,0.271875,
2012-04-12, 00:31:05,VALID,1000.4,VALID,0,VALID,95.1948,VALID,0,VALID,23.0769,VALID,140,VALID,0,
2012-04-12, 00:32:05,VALID,1000.39,VALID,0,VALID,95.1948,VALID,0,VALID,23.0751,VALID,140,VALID,0,
2012-04-12, 00:33:05,VALID,1000.37,VALID,0,VALID,95.2024,VALID,0.104696,VALID,23.0556,VALID,140,VALID,0.1,
2012-04-12, 00:34:05,VALID,1000.38,VALID,0,VALID,95.21,VALID,0,VALID,23.0556,VALID,140,VALID,0.01875,
2012-04-12, 00:35:05,VALID,1000.38,VALID,0,VALID,95.21,VALID,0,VALID,23.0556,VALID,140,VALID,0.177344,
2012-04-12, 00:36:05,VALID,1000.37,VALID,0,VALID,95.1871,VALID,0,VALID,23.0769,VALID,140,VALID,0.133203,
2012-04-12, 00:37:05,VALID,1000.34,VALID,0,VALID,95.2177,VALID,0,VALID,23.0751,VALID,140,VALID,0.0183594,
2012-04-12, 00:38:05,VALID,1000.36,VALID,0,VALID,95.21,VALID,0,VALID,23.0556,VALID,140,VALID,0.348047,
2012-04-12, 00:39:05,VALID,1000.33,VALID,0,VALID,95.2177,VALID,0,VALID,23.0964,VALID,140,VALID,0.159375,
2012-04-12, 00:40:05,VALID,1000.33,VALID,0,VALID,95.1948,VALID,0,VALID,23.0769,VALID,140,VALID,0.191016,
2012-04-12, 00:41:05,VALID,1000.31,VALID,0,VALID,95.1871,VALID,0,VALID,23.0556,VALID,140,VALID,0,
2012-04-12, 00:42:05,VALID,1000.34,VALID,0,VALID,95.2024,VALID,0,VALID,23.0769,VALID,140,VALID,0.0453125,
2012-04-12, 00:43:05,VALID,1000.3,VALID,0,VALID,95.1871,VALID,0,VALID,23.0573,VALID,140,VALID,0,
2012-04-12, 00:44:05,VALID,1000.3,VALID,0,VALID,95.2024,VALID,0,VALID,23.0166,VALID,140,VALID,0,
2012-04-12, 00:45:05,VALID,1000.33,VALID,0,VALID,95.2024,VALID,0,VALID,23.0573,VALID,140,VALID,0.117969,
2012-04-12, 00:46:05,VALID,1000.32,VALID,0,VALID,95.2329,VALID,0,VALID,23.0378,VALID,140,VALID,0.245703,
2012-04-12, 00:47:05,VALID,1000.3,VALID,0,VALID,95.21,VALID,0,VALID,23.0166,VALID,140,VALID,0.453516,
2012-04-12, 00:48:05,VALID,1000.33,VALID,0,VALID,95.2329,VALID,0,VALID,23.0378,VALID,140,VALID,0.600781,
2012-04-12, 00:49:05,VALID,1000.34,VALID,0,VALID,95.2253,VALID,0,VALID,23.0361,VALID,140,VALID,0.898047,
2012-04-12, 00:50:05,VALID,1000.33,VALID,0,VALID,95.2329,VALID,0,VALID,23.0769,VALID,140,VALID,0.885938,
2012-04-12, 00:51:05,VALID,1000.35,VALID,0,VALID,95.2329,VALID,0,VALID,23.0769,VALID,140,VALID,0.594922,
2012-04-12, 00:52:05,VALID,1000.34,VALID,0,VALID,95.2177,VALID,0,VALID,23.0556,VALID,146,VALID,0.653125,
2012-04-12, 00:53:05,VALID,1000.3,VALID,0,VALID,95.21,VALID,0,VALID,23.0964,VALID,138,VALID,0.590625,
2012-04-12, 00:54:05,VALID,1000.29,VALID,0,VALID,95.1948,VALID,0,VALID,23.0751,VALID,140,VALID,0.765234,
2012-04-12, 00:55:05,VALID,1000.29,VALID,0,VALID,95.1948,VALID,0,VALID,23.1159,VALID,152,VALID,0.621484,
2012-04-12, 00:56:05,VALID,1000.25,VALID,0,VALID,95.1871,VALID,0,VALID,23.1159,VALID,173,VALID,0.538281,
2012-04-12, 00:57:05,VALID,1000.22,VALID,0,VALID,95.1643,VALID,0,VALID,23.1141,VALID,173,VALID,0.563672,
2012-04-12, 00:58:05,VALID,1000.2,VALID,0,VALID,95.1719,VALID,0,VALID,23.1336,VALID,199,VALID,0.928906,
2012-04-12, 00:59:05,VALID,1000.22,VALID,0,VALID,95.1337,VALID,0,VALID,23.1744,VALID,199,VALID,0.296875,
2012-04-12, 01:00:05,VALID,1000.25,VALID,0,VALID,95.0956,VALID,0,VALID,23.1726,VALID,199,VALID,0.403125,
2012-04-12, 01:01:05,VALID,1000.23,VALID,0,VALID,95.0803,VALID,0,VALID,23.1939,VALID,199,VALID,0.574219,
2012-04-12, 01:02:05,VALID,1000.26,VALID,0,VALID,95.0345,VALID,0,VALID,23.1726,VALID,181,VALID,0.960156,
2012-04-12, 01:03:05,VALID,1000.27,VALID,0,VALID,95.004,VALID,0,VALID,23.2134,VALID,181,VALID,0.823828,
2012-04-12, 01:04:05,VALID,1000.27,VALID,0,VALID,94.9659,VALID,0,VALID,23.1921,VALID,181,VALID,0.709766,
2012-04-12, 01:05:05,VALID,1000.28,VALID,0,VALID,94.9048,VALID,0,VALID,23.2134,VALID,186,VALID,0.976172,
2012-04-12, 01:06:05,VALID,1000.28,VALID,0,VALID,94.8591,VALID,0,VALID,23.2329,VALID,190,VALID,0.716406,
2012-04-12, 01:07:05,VALID,1000.25,VALID,0,VALID,94.8057,VALID,0,VALID,23.2329,VALID,190,VALID,0.606641,
2012-04-12, 01:08:05,VALID,1000.23,VALID,0,VALID,94.7523,VALID,0,VALID,23.2329,VALID,190,VALID,0.404297,
2012-04-12, 01:09:05,VALID,1000.22,VALID,0,VALID,94.6836,VALID,0,VALID,23.2524,VALID,190,VALID,0.422656,
2012-04-12, 01:10:05,VALID,1000.21,VALID,0,VALID,94.6226,VALID,0,VALID,23.2524,VALID,190,VALID,0,
2012-04-12, 01:11:05,VALID,1000.16,VALID,0,VALID,94.6302,VALID,0,VALID,23.2524,VALID,190,VALID,0.144141,
2012-04-12, 01:12:05,VALID,1000.14,VALID,0,VALID,94.6073,VALID,0,VALID,23.2329,VALID,190,VALID,0.0851562,
2012-04-12, 01:13:05,VALID,1000.14,VALID,0,VALID,94.6149,VALID,0,VALID,23.2134,VALID,190,VALID,0.00390625,
2012-04-12, 01:14:05,VALID,1000.14,VALID,0,VALID,94.6378,VALID,0,VALID,23.2134,VALID,186,VALID,0.621875,
2012-04-12, 01:15:05,VALID,1000.15,VALID,0,VALID,94.6302,VALID,0,VALID,23.2134,VALID,176,VALID,0.430859,
2012-04-12, 01:16:05,VALID,1000.11,VALID,0,VALID,94.5768,VALID,0,VALID,23.1726,VALID,176,VALID,0.547266,
2012-04-12, 01:17:05,VALID,1000.12,VALID,0,VALID,94.5691,VALID,0,VALID,23.1939,VALID,154,VALID,0.601563,
2012-04-12, 01:18:05,VALID,1000.11,VALID,0,VALID,94.5768,VALID,0.104696,VALID,23.1726,VALID,154,VALID,0.651172,
2012-04-12, 01:19:05,VALID,1000.08,VALID,0,VALID,94.592,VALID,0,VALID,23.1939,VALID,136,VALID,0.738281,
2012-04-12, 01:20:05,VALID,1000.07,VALID,0,VALID,94.5844,VALID,0,VALID,23.2134,VALID,123,VALID,0.602344,
2012-04-12, 01:21:05,VALID,1000.04,VALID,0,VALID,94.5768,VALID,0,VALID,23.1921,VALID,123,VALID,0.405078,
2012-04-12, 01:22:05,VALID,1000.02,VALID,0,VALID,94.6073,VALID,0,VALID,23.2134,VALID,123,VALID,0.320313,
2012-04-12, 01:23:05,VALID,1000.02,VALID,0,VALID,94.6226,VALID,0,VALID,23.1921,VALID,123,VALID,0.246094,
2012-04-12, 01:24:05,VALID,1000.02,VALID,0,VALID,94.6302,VALID,0,VALID,23.2134,VALID,123,VALID,0.0078125,
2012-04-12, 01:25:05,VALID,999.984,VALID,0,VALID,94.6378,VALID,0,VALID,23.1939,VALID,123,VALID,0.0878906,
2012-04-12, 01:26:05,VALID,1000,VALID,0,VALID,94.6683,VALID,0,VALID,23.1939,VALID,123,VALID,0.0351563,
2012-04-12, 01:27:05,VALID,999.983,VALID,0,VALID,94.676,VALID,0,VALID,23.1939,VALID,123,VALID,0,
2012-04-12, 01:28:05,VALID,999.991,VALID,0,VALID,94.6836,VALID,0,VALID,23.1939,VALID,123,VALID,0,
2012-04-12, 01:29:05,VALID,999.961,VALID,0,VALID,94.6683,VALID,0,VALID,23.1939,VALID,123,VALID,0,
2012-04-12, 01:30:05,VALID,999.999,VALID,0,VALID,94.6836,VALID,0,VALID,23.1549,VALID,123,VALID,0,
2012-04-12, 01:31:05,VALID,999.987,VALID,0,VALID,94.6988,VALID,0,VALID,23.1549,VALID,123,VALID,0,
2012-04-12, 01:32:05,VALID,999.945,VALID,0,VALID,94.7446,VALID,0,VALID,23.1549,VALID,123,VALID,0,
2012-04-12, 01:33:05,VALID,999.968,VALID,0,VALID,94.7599,VALID,0,VALID,23.1549,VALID,123,VALID,0.228516,
2012-04-12, 01:34:05,VALID,999.967,VALID,0,VALID,94.7751,VALID,0,VALID,23.1354,VALID,123,VALID,0,
2012-04-12, 01:35:05,VALID,999.915,VALID,0,VALID,94.7828,VALID,0,VALID,23.1354,VALID,123,VALID,0,
2012-04-12, 01:36:05,VALID,999.939,VALID,0,VALID,94.7751,VALID,0,VALID,23.1354,VALID,123,VALID,0,
2012-04-12, 01:37:05,VALID,999.921,VALID,0,VALID,94.8057,VALID,0,VALID,23.1354,VALID,123,VALID,0,
2012-04-12, 01:38:05,VALID,999.92,VALID,0,VALID,94.8285,VALID,0,VALID,23.1354,VALID,123,VALID,0,
2012-04-12, 01:39:05,VALID,999.895,VALID,0,VALID,94.8362,VALID,0,VALID,23.1354,VALID,123,VALID,0.348437,
2012-04-12, 01:40:05,VALID,999.861,VALID,0,VALID,94.8133,VALID,0,VALID,23.0946,VALID,123,VALID,0.494922,
2012-04-12, 01:41:05,VALID,999.873,VALID,0,VALID,94.7751,VALID,0,VALID,23.0946,VALID,123,VALID,0.689844,
2012-04-12, 01:42:05,VALID,999.837,VALID,0,VALID,94.7446,VALID,0,VALID,23.1141,VALID,86,VALID,0.865625,
2012-04-12, 01:43:05,VALID,999.861,VALID,0,VALID,94.6531,VALID,0,VALID,23.1354,VALID,86,VALID,0.865234,
2012-04-12, 01:44:05,VALID,999.853,VALID,0,VALID,94.6073,VALID,0,VALID,23.1336,VALID,86,VALID,0.774609,
2012-04-12, 01:45:05,VALID,999.806,VALID,0,VALID,94.5768,VALID,0,VALID,23.1744,VALID,82,VALID,0.706641,
2012-04-12, 01:46:05,VALID,999.822,VALID,0,VALID,94.5844,VALID,0,VALID,23.1744,VALID,82,VALID,0.560156,
2012-04-12, 01:47:05,VALID,999.805,VALID,0,VALID,94.6073,VALID,0,VALID,23.1531,VALID,82,VALID,0.501172,
2012-04-12, 01:48:05,VALID,999.768,VALID,0,VALID,94.6454,VALID,0,VALID,23.1549,VALID,82,VALID,0.4625,
2012-04-12, 01:49:05,VALID,999.754,VALID,0,VALID,94.676,VALID,0,VALID,23.1549,VALID,82,VALID,0.308594,
2012-04-12, 01:50:05,VALID,999.737,VALID,0,VALID,94.7065,VALID,0,VALID,23.1336,VALID,82,VALID,0.546875,
2012-04-12, 01:51:05,VALID,999.729,VALID,0,VALID,94.7523,VALID,0,VALID,23.1549,VALID,82,VALID,0.673047,
2012-04-12, 01:52:05,VALID,999.74,VALID,0,VALID,94.798,VALID,0,VALID,23.1141,VALID,82,VALID,0.555469,
2012-04-12, 01:53:05,VALID,999.731,VALID,0,VALID,94.8285,VALID,0,VALID,23.1141,VALID,82,VALID,0.587109,
2012-04-12, 01:54:05,VALID,999.741,VALID,0,VALID,94.8743,VALID,0,VALID,23.1141,VALID,82,VALID,0.6,
2012-04-12, 01:55:05,VALID,999.722,VALID,0,VALID,94.9048,VALID,0,VALID,23.1159,VALID,82,VALID,0.573438,
2012-04-12, 01:56:05,VALID,999.722,VALID,0,VALID,94.8972,VALID,0,VALID,23.0946,VALID,82,VALID,0.544141,
2012-04-12, 01:57:05,VALID,999.725,VALID,0,VALID,94.9277,VALID,0,VALID,23.1159,VALID,53,VALID,0.801562,
2012-04-12, 01:58:05,VALID,999.695,VALID,0,VALID,94.943,VALID,0,VALID,23.1159,VALID,53,VALID,0.835938,
2012-04-12, 01:59:05,VALID,999.696,VALID,0,VALID,94.9583,VALID,0,VALID,23.0964,VALID,42,VALID,0.918359,
2012-04-12, 02:00:05,VALID,999.694,VALID,0,VALID,94.9964,VALID,0,VALID,23.0751,VALID,42,VALID,0.736719,
2012-04-12, 02:01:05,VALID,999.648,VALID,0,VALID,95.0269,VALID,0,VALID,23.0964,VALID,42,VALID,0.612891,
2012-04-12, 02:02:05,VALID,999.624,VALID,0,VALID,95.0193,VALID,0,VALID,23.0769,VALID,42,VALID,0.551172,
2012-04-12, 02:03:05,VALID,999.608,VALID,0,VALID,95.0498,VALID,0,VALID,23.0964,VALID,42,VALID,0.390625,
2012-04-12, 02:04:05,VALID,999.613,VALID,0,VALID,95.0345,VALID,0,VALID,23.0751,VALID,42,VALID,0.194922,
2012-04-12, 02:05:05,VALID,999.606,VALID,0,VALID,95.0574,VALID,0,VALID,23.0964,VALID,42,VALID,0.121094,
2012-04-12, 02:06:05,VALID,999.57,VALID,0,VALID,95.0727,VALID,0,VALID,23.0556,VALID,42,VALID,0,
2012-04-12, 02:07:05,VALID,999.527,VALID,0,VALID,95.0803,VALID,0,VALID,23.0769,VALID,42,VALID,0,
2012-04-12, 02:08:05,VALID,999.569,VALID,0,VALID,95.0803,VALID,0,VALID,23.0556,VALID,42,VALID,0,
2012-04-12, 02:09:05,VALID,999.552,VALID,0,VALID,95.1032,VALID,0.104696,VALID,23.0556,VALID,42,VALID,0,
2012-04-12, 02:10:05,VALID,999.557,VALID,0,VALID,95.1185,VALID,0,VALID,23.0573,VALID,42,VALID,0.299219,
2012-04-12, 02:11:05,VALID,999.566,VALID,0,VALID,95.1337,VALID,0,VALID,23.0556,VALID,42,VALID,0.301172,
2012-04-12, 02:12:05,VALID,999.582,VALID,0,VALID,95.1414,VALID,0,VALID,23.0573,VALID,42,VALID,0.326172,
2012-04-12, 02:13:05,VALID,999.566,VALID,0,VALID,95.1566,VALID,0,VALID,23.0751,VALID,42,VALID,0.460938,
2012-04-12, 02:14:05,VALID,999.602,VALID,0,VALID,95.1719,VALID,0.104696,VALID,23.0751,VALID,42,VALID,0.496094,
2012-04-12, 02:15:05,VALID,999.609,VALID,0,VALID,95.1719,VALID,0,VALID,23.0751,VALID,42,VALID,0.522266,
2012-04-12, 02:16:05,VALID,999.602,VALID,0,VALID,95.1795,VALID,0,VALID,23.0964,VALID,42,VALID,0.403125,
2012-04-12, 02:17:05,VALID,999.619,VALID,0,VALID,95.1719,VALID,0,VALID,23.0946,VALID,42,VALID,0.457812,
2012-04-12, 02:18:05,VALID,999.635,VALID,0,VALID,95.1795,VALID,0,VALID,23.1159,VALID,42,VALID,0.487109,
2012-04-12, 02:19:05,VALID,999.684,VALID,0,VALID,95.1566,VALID,0,VALID,23.1141,VALID,42,VALID,0.528516,
2012-04-12, 02:20:05,VALID,999.666,VALID,0,VALID,95.1643,VALID,0,VALID,23.1141,VALID,42,VALID,0.496875,
2012-04-12, 02:21:05,VALID,999.663,VALID,0,VALID,95.1566,VALID,0,VALID,23.1159,VALID,42,VALID,0.38125,
2012-04-12, 02:22:05,VALID,999.671,VALID,0,VALID,95.149,VALID,0,VALID,23.1141,VALID,42,VALID,0.307031,
2012-04-12, 02:23:05,VALID,999.685,VALID,0,VALID,95.1261,VALID,0,VALID,23.1354,VALID,42,VALID,0.276172,
2012-04-12, 02:24:05,VALID,999.717,VALID,0,VALID,95.1414,VALID,0,VALID,23.1141,VALID,42,VALID,0.250391,
2012-04-12, 02:25:05,VALID,999.715,VALID,0,VALID,95.1337,VALID,0,VALID,23.1141,VALID,42,VALID,0.196094,
2012-04-12, 02:26:05,VALID,999.752,VALID,0,VALID,95.1414,VALID,0,VALID,23.1354,VALID,42,VALID,0.01875,
2012-04-12, 02:27:05,VALID,999.761,VALID,0,VALID,95.1261,VALID,0,VALID,23.1159,VALID,42,VALID,0.179297,
2012-04-12, 02:28:05,VALID,999.735,VALID,0,VALID,95.1414,VALID,0,VALID,23.1159,VALID,42,VALID,0.265625,
2012-04-12, 02:29:05,VALID,999.76,VALID,0,VALID,95.1185,VALID,0.104696,VALID,23.1354,VALID,42,VALID,0.244922,
2012-04-12, 02:30:05,VALID,999.792,VALID,0,VALID,95.1337,VALID,0,VALID,23.1159,VALID,42,VALID,0.253125,
2012-04-12, 02:31:05,VALID,999.771,VALID,0,VALID,95.1337,VALID,0,VALID,23.1354,VALID,42,VALID,0.177734,
2012-04-12, 02:32:05,VALID,999.773,VALID,0,VALID,95.149,VALID,0,VALID,23.1159,VALID,42,VALID,0.212109,
2012-04-12, 02:33:05,VALID,999.769,VALID,0,VALID,95.1414,VALID,0.104696,VALID,23.0946,VALID,42,VALID,0.197266,
2012-04-12, 02:34:05,VALID,999.781,VALID,0,VALID,95.1795,VALID,0,VALID,23.0946,VALID,42,VALID,0.262891,
2012-04-12, 02:35:05,VALID,999.789,VALID,0,VALID,95.149,VALID,0.104696,VALID,23.1141,VALID,42,VALID,0.451953,
2012-04-12, 02:36:05,VALID,999.767,VALID,0,VALID,95.1795,VALID,0,VALID,23.1141,VALID,42,VALID,0.45,
2012-04-12, 02:37:05,VALID,999.724,VALID,0,VALID,95.1643,VALID,0.104696,VALID,23.1141,VALID,53,VALID,0.618359,
2012-04-12, 02:38:05,VALID,999.745,VALID,0,VALID,95.1643,VALID,0,VALID,23.1141,VALID,53,VALID,0.591406,
2012-04-12, 02:39:05,VALID,999.736,VALID,0,VALID,95.21,VALID,0.104696,VALID,23.0946,VALID,53,VALID,0.521094,
2012-04-12, 02:40:05,VALID,999.72,VALID,0,VALID,95.1871,VALID,0,VALID,23.1141,VALID,53,VALID,0.666406,
2012-04-12, 02:41:05,VALID,999.718,VALID,0,VALID,95.1871,VALID,0,VALID,23.1354,VALID,73,VALID,0.684375,
2012-04-12, 02:42:05,VALID,999.675,VALID,0,VALID,95.1795,VALID,0.104696,VALID,23.1141,VALID,73,VALID,0.559375,
2012-04-12, 02:43:05,VALID,999.699,VALID,0,VALID,95.1948,VALID,0.104696,VALID,23.1336,VALID,73,VALID,0.416797,
2012-04-12, 02:44:05,VALID,999.691,VALID,0,VALID,95.2253,VALID,0.104696,VALID,23.1549,VALID,73,VALID,0.483594,
2012-04-12, 02:45:05,VALID,999.688,VALID,0,VALID,95.1948,VALID,0,VALID,23.1549,VALID,73,VALID,0.311328,
2012-04-12, 02:46:05,VALID,999.71,VALID,0,VALID,95.2177,VALID,0,VALID,23.1549,VALID,73,VALID,0.335156,
2012-04-12, 02:47:05,VALID,999.72,VALID,0,VALID,95.2253,VALID,0.104696,VALID,23.1744,VALID,73,VALID,0.548828,
2012-04-12, 02:48:05,VALID,999.737,VALID,0,VALID,95.2253,VALID,0,VALID,23.1549,VALID,73,VALID,0.558984,
2012-04-12, 02:49:04,VALID,999.763,VALID,0,VALID,95.2177,VALID,0,VALID,23.1531,VALID,73,VALID,0.350391,
2012-04-12, 02:50:04,VALID,999.744,VALID,0,VALID,95.2253,VALID,0,VALID,23.1531,VALID,73,VALID,0.429688,
2012-04-12, 02:51:04,VALID,999.736,VALID,0,VALID,95.2024,VALID,0,VALID,23.1744,VALID,73,VALID,0.505078,
2012-04-12, 02:52:04,VALID,999.715,VALID,0,VALID,95.21,VALID,0.104696,VALID,23.1726,VALID,64,VALID,0.638672,
2012-04-12, 02:53:04,VALID,999.726,VALID,0,VALID,95.1719,VALID,0,VALID,23.1744,VALID,64,VALID,0.466406,
2012-04-12, 02:54:04,VALID,999.759,VALID,0,VALID,95.1871,VALID,0,VALID,23.1336,VALID,64,VALID,0.461719,
2012-04-12, 02:55:04,VALID,999.773,VALID,0,VALID,95.1643,VALID,0.104696,VALID,23.1141,VALID,64,VALID,0.293359,
2012-04-12, 02:56:04,VALID,999.769,VALID,0,VALID,95.1566,VALID,0,VALID,23.1354,VALID,64,VALID,0.065625,
2012-04-12, 02:57:04,VALID,999.797,VALID,0,VALID,95.1566,VALID,0,VALID,23.0946,VALID,64,VALID,0,
2012-04-12, 02:58:04,VALID,999.776,VALID,0,VALID,95.1566,VALID,0,VALID,23.1159,VALID,64,VALID,0,
2012-04-12, 02:59:04,VALID,999.77,VALID,0,VALID,95.1643,VALID,0,VALID,23.0964,VALID,64,VALID,0,
2012-04-12, 03:00:04,VALID,999.776,VALID,0,VALID,95.1566,VALID,0,VALID,23.0751,VALID,64,VALID,0,
2012-04-12, 03:01:04,VALID,999.783,VALID,0,VALID,95.1643,VALID,0.104696,VALID,23.1159,VALID,64,VALID,0,
2012-04-12, 03:02:04,VALID,999.825,VALID,0,VALID,95.149,VALID,0,VALID,23.0946,VALID,64,VALID,0.471875,
2012-04-12, 03:03:04,VALID,999.815,VALID,0,VALID,95.1643,VALID,0,VALID,23.0946,VALID,64,VALID,0.404297,
2012-04-12, 03:04:04,VALID,999.827,VALID,0,VALID,95.1643,VALID,0.104696,VALID,23.1159,VALID,64,VALID,0.260156,
2012-04-12, 03:05:04,VALID,999.842,VALID,0,VALID,95.1719,VALID,0,VALID,23.1159,VALID,64,VALID,0,
2012-04-12, 03:06:04,VALID,999.815,VALID,0,VALID,95.1643,VALID,0,VALID,23.1159,VALID,64,VALID,0,
2012-04-12, 03:07:04,VALID,999.81,VALID,0,VALID,95.1795,VALID,0,VALID,23.1141,VALID,64,VALID,0,
2012-04-12, 03:08:04,VALID,999.825,VALID,0,VALID,95.1795,VALID,0,VALID,23.1141,VALID,64,VALID,0,
2012-04-12, 03:09:04,VALID,999.822,VALID,0,VALID,95.1795,VALID,0,VALID,23.1336,VALID,64,VALID,0,
2012-04-12, 03:10:04,VALID,999.805,VALID,0,VALID,95.2024,VALID,0,VALID,23.1549,VALID,64,VALID,0,
2012-04-12, 03:11:04,VALID,999.841,VALID,0,VALID,95.1948,VALID,0,VALID,23.1744,VALID,64,VALID,0,
2012-04-12, 03:12:04,VALID,999.803,VALID,0,VALID,95.1871,VALID,0,VALID,23.1531,VALID,64,VALID,0,
2012-04-12, 03:13:04,VALID,999.791,VALID,0,VALID,95.1871,VALID,0,VALID,23.1939,VALID,64,VALID,0.539844,
2012-04-12, 03:14:04,VALID,999.825,VALID,0,VALID,95.1871,VALID,0,VALID,23.1726,VALID,64,VALID,0.476563,
2012-04-12, 03:15:04,VALID,999.785,VALID,0,VALID,95.1871,VALID,0,VALID,23.1744,VALID,64,VALID,0.440234,
2012-04-12, 03:16:04,VALID,999.797,VALID,0,VALID,95.2024,VALID,0,VALID,23.1939,VALID,64,VALID,0.369922,
2012-04-12, 03:17:04,VALID,999.784,VALID,0,VALID,95.1948,VALID,0,VALID,23.1744,VALID,64,VALID,0.352734,
2012-04-12, 03:18:04,VALID,999.77,VALID,0,VALID,95.1871,VALID,0,VALID,23.1939,VALID,64,VALID,0.302734,
2012-04-12, 03:19:04,VALID,999.778,VALID,0,VALID,95.1871,VALID,0,VALID,23.1921,VALID,64,VALID,0.110156,
2012-04-12, 03:20:04,VALID,999.75,VALID,0,VALID,95.1643,VALID,0,VALID,23.2134,VALID,64,VALID,0,
2012-04-12, 03:21:04,VALID,999.768,VALID,0,VALID,95.1719,VALID,0,VALID,23.1921,VALID,64,VALID,0,
2012-04-12, 03:22:04,VALID,999.767,VALID,0,VALID,95.1795,VALID,0,VALID,23.2117,VALID,64,VALID,0,
2012-04-12, 03:23:04,VALID,999.782,VALID,0,VALID,95.1719,VALID,0,VALID,23.1921,VALID,64,VALID,0,
2012-04-12, 03:24:04,VALID,999.785,VALID,0,VALID,95.149,VALID,0,VALID,23.2134,VALID,64,VALID,0,
2012-04-12, 03:25:04,VALID,999.774,VALID,0,VALID,95.1719,VALID,0,VALID,23.2134,VALID,64,VALID,0,
2012-04-12, 03:26:04,VALID,999.774,VALID,0,VALID,95.1795,VALID,0,VALID,23.2117,VALID,64,VALID,0,
2012-04-12, 03:27:04,VALID,999.786,VALID,0,VALID,95.1719,VALID,0,VALID,23.1921,VALID,101,VALID,0,
2012-04-12, 03:28:04,VALID,999.761,VALID,0,VALID,95.1719,VALID,0,VALID,23.2329,VALID,118,VALID,0,
2012-04-12, 03:29:04,VALID,999.775,VALID,0,VALID,95.1566,VALID,0,VALID,23.2312,VALID,138,VALID,0.0789063,
2012-04-12, 03:30:04,VALID,999.786,VALID,0,VALID,95.1261,VALID,0,VALID,23.2719,VALID,141,VALID,0.865234,
2012-04-12, 03:31:04,VALID,999.763,VALID,0,VALID,95.1032,VALID,0,VALID,23.2719,VALID,145,VALID,1.02813,
2012-04-12, 03:32:04,VALID,999.763,VALID,0,VALID,95.088,VALID,0,VALID,23.2897,VALID,145,VALID,0.879297,
2012-04-12, 03:33:04,VALID,999.744,VALID,0,VALID,95.0422,VALID,0,VALID,23.3305,VALID,144,VALID,0.613672,
2012-04-12, 03:34:04,VALID,999.725,VALID,0,VALID,95.0269,VALID,0,VALID,23.3305,VALID,144,VALID,0.376172,
2012-04-12, 03:35:04,VALID,999.743,VALID,0,VALID,95.004,VALID,0,VALID,23.3287,VALID,145,VALID,0,
2012-04-12, 03:36:04,VALID,999.713,VALID,0,VALID,94.9735,VALID,0,VALID,23.35,VALID,144,VALID,0,
2012-04-12, 03:37:04,VALID,999.747,VALID,0,VALID,94.9583,VALID,0,VALID,23.3287,VALID,144,VALID,0,
2012-04-12, 03:38:04,VALID,999.753,VALID,0,VALID,94.9354,VALID,0,VALID,23.3287,VALID,145,VALID,0,
2012-04-12, 03:39:04,VALID,999.779,VALID,0,VALID,94.9354,VALID,0,VALID,23.35,VALID,145,VALID,0,
2012-04-12, 03:40:04,VALID,999.793,VALID,0,VALID,94.9125,VALID,0,VALID,23.35,VALID,144,VALID,0.71875,
2012-04-12, 03:41:04,VALID,999.807,VALID,0,VALID,94.9201,VALID,0,VALID,23.3305,VALID,144,VALID,0.572266,
2012-04-12, 03:42:04,VALID,999.781,VALID,0,VALID,94.9048,VALID,0,VALID,23.35,VALID,142,VALID,0.637109,
2012-04-12, 03:43:04,VALID,999.83,VALID,0,VALID,94.8667,VALID,0,VALID,23.35,VALID,142,VALID,0.516797,
2012-04-12, 03:44:04,VALID,999.813,VALID,0,VALID,94.8591,VALID,0,VALID,23.3695,VALID,142,VALID,0.651172,
2012-04-12, 03:45:04,VALID,999.847,VALID,0,VALID,94.8514,VALID,0,VALID,23.3482,VALID,142,VALID,0.804688,
2012-04-12, 03:46:04,VALID,999.818,VALID,0,VALID,94.8133,VALID,0,VALID,23.3695,VALID,142,VALID,0.630078,
2012-04-12, 03:47:04,VALID,999.778,VALID,0,VALID,94.8285,VALID,0,VALID,23.3695,VALID,142,VALID,0.403516,